195  
NZUS99 KDVN 220010  
HRRRRR  
HOURLY WEATHER ROUNDUP  
NATIONAL WEATHER SERVICE QUAD CITIES IA IL  
700 PM CDT TUE AUG 21 2018  
 
NOTE: "FAIR" INDICATES FEW OR NO CLOUDS BELOW 12,000 FEET WITH  
NO SIGNIFICANT WEATHER AND/OR OBSTRUCTIONS TO VISIBILITY.  
------------------------------------------------------------------  
 
CITY SKY/WX TMP DP RH WIND PRES REMARKS  
BURLINGTON MOCLDY 74 63 68 N7 30.05R  
6HR MIN TEMP: 74; 6HR MAX TEMP: 80;  
 
CEDAR RAPIDS MOCLDY 68 62 81 NW10 30.09R  
6HR MIN TEMP: 67; 6HR MAX TEMP: 73;  
 
DAVENPORT CLOUDY 70 62 76 NW14G24 30.07R  
6HR MIN TEMP: 70; 6HR MAX TEMP: 78;  
 
DUBUQUE CLOUDY 65 61 87 NW9 30.08R  
6HR MIN TEMP: 65; 6HR MAX TEMP: 75;  
 
IOWA CITY CLOUDY 70 61 73 N12G22 30.09S  
6HR MIN TEMP: 70; 6HR MAX TEMP: 75;  
 
MOLINE CLOUDY 73 63 70 NW16G25 30.04R  
6HR MIN TEMP: 74; 6HR MAX TEMP: 81;  
 
------------------------------------------------------------------  
THE STATIONS BELOW ARE NOT NWS STATIONS AND ARE NOT SUBJECT TO NWS  
QUALITY CONTROL. SOME STATIONS DO NOT REPORT WEATHER SUCH AS FOG.  
* - STATIONS THAT REPORT TMP AND DP IN WHOLE DEGREES CELSIUS, WHICH  
ARE THEN CONVERTED TO FAHRENHEIT.  
------------------------------------------------------------------  
 
CITY SKY/WX TMP DP RH WIND PRES REMARKS  
CLINTON CLOUDY 70 63 78 N14 30.05R  
6HR MIN TEMP: 70; 6HR MAX TEMP: 78;  
 
FAIRFIELD * CLOUDY 73 64 73 NW9 30.07R  
FORT MADISON * PTCLDY 73 64 73 NW9 30.07S  
FREEPORT CLOUDY 68 61 79 NW12 30.05R  
6HR MIN TEMP: 68; 6HR MAX TEMP: 76;  
 
INDEPENDENCE * FAIR 68 62 79 NW9G17 30.11R  
KEOKUK * PTCLDY 73 63 68 NW8 30.05S  
MACOMB PTCLDY 72 64 77 NW13 30.07R  
6HR MIN TEMP: 72; 6HR MAX TEMP: 79;  
 
MONTICELLO * N/A 68 63 83 NW13 30.08R  
MT PLEASANT CLOUDY 73 64 73 NW10 30.07R  
MUSCATINE * MOCLDY 72 61 68 N10G18 30.07R  
SAVANNA NOT AVBL  
STERLING/R.F. FAIR 73 64 73 N14G21 30.02R  
6HR MIN TEMP: 73; 6HR MAX TEMP: 81;  
 
VINTON * MOCLDY 71 62 72 NW8 30.10S  
6HR MIN TEMP: 71; 6HR MAX TEMP: 72;  
 
WASHINGTON * CLOUDY 72 64 78 N12G18 30.09R  
------------------------------------------------------------------  
 
 
CLICK HERE TO GO TO PREVIOUS BULLETINS.

The Nexlab IL Page
The Nexlab IA Page
The Nexlab MO Page Main Text Page

The Nexlab IL Page
The Nexlab IA Page
The Nexlab MO Page Main Text Page